| time (UTC) | temp C | wind direction | speed KPH | gust KPH | rain 1hr cm | rain 24hr cm | rain mn cm | humidity % | barometer mb |
| 20260906130637 | 21 | 29 | 8.0 | 9.7 | 0.00 | 0.00 | 0.00 | 95 | 1018.0 |
| 20260906130133 | 21 | 110 | 3.2 | 8.0 | 0.00 | 0.00 | 0.00 | 95 | 1017.9 |
| 20260906125625 | 21 | 89 | 0.0 | 6.4 | 0.00 | 0.00 | 0.00 | 96 | 1018.1 |
| 20260906125124 | 21 | 28 | 3.2 | 6.4 | 0.00 | 0.00 | 0.00 | 96 | 1017.8 |
| 20260906124620 | 20 | 48 | 4.8 | 8.0 | 0.00 | 0.00 | 0.00 | 97 | 1018.1 |
| 20260906124114 | 20 | 48 | 4.8 | 6.4 | 0.00 | 0.00 | 0.00 | 97 | 1018.1 |
| 20260906123614 | 20 | 29 | 3.2 | 4.8 | 0.00 | 0.00 | 0.00 | 98 | 1017.8 |
| 20260906123109 | 20 | 52 | 3.2 | 6.4 | 0.00 | 0.00 | 0.00 | 98 | 1017.9 |
| 20260906122603 | 20 | 21 | 6.4 | 6.4 | 0.00 | 0.00 | 0.00 | 99 | 1017.9 |
| 20260906122058 | 20 | 82 | 0.0 | 4.8 | 0.00 | 0.00 | 0.00 | 99 | 1018.1 |
| 20260906121554 | 20 | 40 | 3.2 | 6.4 | 0.00 | 0.00 | 0.00 | 99 | 1018.0 |
| 20260906121051 | 19 | 25 | 1.6 | 6.4 | 0.00 | 0.00 | 0.00 | 99 | 1017.8 |
| 20260906120546 | 19 | 2 | 0.0 | 8.0 | 0.00 | 0.00 | 0.00 | 99 | 1017.7 |
| 20260906120043 | 19 | 21 | 4.8 | 6.4 | 0.00 | 0.00 | 0.00 | 99 | 1017.8 |
| 20260906115542 | 19 | 50 | 4.8 | 4.8 | 0.00 | 0.00 | 0.00 | 99 | 1017.6 |
| 20260906115037 | 19 | 14 | 3.2 | 4.8 | 0.00 | 0.00 | 0.00 | 99 | 1017.3 |
| 20260906114531 | 19 | 45 | 3.2 | 4.8 | 0.00 | 0.00 | 0.00 | 99 | 1017.3 |
| 20260906114022 | 19 | 353 | 1.6 | 4.8 | 0.00 | 0.00 | 0.00 | 99 | 1017.3 |
| 20260906113520 | 19 | 74 | 3.2 | 4.8 | 0.00 | 0.00 | 0.00 | 99 | 1017.4 |
| 20260906113016 | 19 | 8 | 4.8 | 6.4 | 0.00 | 0.00 | 0.00 | 99 | 1017.1 |
| 20260906112511 | 19 | 27 | 4.8 | 4.8 | 0.00 | 0.00 | 0.00 | 99 | 1016.8 |
| 20260906112007 | 19 | 34 | 1.6 | 6.4 | 0.00 | 0.00 | 0.00 | 99 | 1016.7 |
| 20260906111501 | 19 | 49 | 3.2 | 4.8 | 0.00 | 0.00 | 0.00 | 99 | 1017.0 |
| 20260906110956 | 19 | 9 | 4.8 | 4.8 | 0.00 | 0.00 | 0.00 | 99 | 1016.7 |
| 20260906110450 | 19 | 14 | 3.2 | 4.8 | 0.00 | 0.00 | 0.00 | 99 | 1016.6 |
| 20260906105949 | 19 | 354 | 6.4 | 6.4 | 0.00 | 0.00 | 0.00 | 99 | 1016.8 |
| 20260906105445 | 19 | 317 | 3.2 | 6.4 | 0.00 | 0.00 | 0.00 | 99 | 1016.8 |
| 20260906104942 | 19 | 317 | 3.2 | 4.8 | 0.00 | 0.00 | 0.00 | 99 | 1016.7 |
| 20260906104440 | 19 | 351 | 3.2 | 4.8 | 0.00 | 0.00 | 0.00 | 99 | 1016.5 |
| 20260906103939 | 19 | 12 | 3.2 | 6.4 | 0.00 | 0.00 | 0.00 | 99 | 1016.3 |
| 20260906103437 | 19 | 336 | 6.4 | 8.0 | 0.00 | 0.00 | 0.00 | 99 | 1016.7 |
| 20260906102932 | 19 | 19 | 3.2 | 6.4 | 0.00 | 0.00 | 0.00 | 99 | 1016.5 |
| 20260906102427 | 19 | 351 | 0.0 | 4.8 | 0.00 | 0.00 | 0.00 | 99 | 1016.5 |
| 20260906101922 | 19 | 331 | 1.6 | 6.4 | 0.00 | 0.00 | 0.00 | 99 | 1016.6 |
| 20260906101417 | 19 | 28 | 3.2 | 4.8 | 0.00 | 0.00 | 0.00 | 99 | 1016.3 |
| 20260906100912 | 19 | 32 | 3.2 | 8.0 | 0.00 | 0.00 | 0.00 | 99 | 1016.6 |
| 20260906100412 | 19 | 64 | 3.2 | 6.4 | 0.00 | 0.00 | 0.00 | 99 | 1016.3 |
| 20260906095907 | 19 | 38 | 3.2 | 4.8 | 0.00 | 0.00 | 0.00 | 99 | 1016.2 |
| 20260906095403 | 19 | 3 | 1.6 | 4.8 | 0.00 | 0.00 | 0.00 | 99 | 1016.1 |
| 20260906094902 | 20 | 38 | 0.0 | 8.0 | 0.00 | 0.00 | 0.00 | 99 | 1016.1 |
| 20260906094356 | 20 | 325 | 3.2 | 4.8 | 0.00 | 0.00 | 0.00 | 99 | 1016.1 |
| 20260906093853 | 20 | 3 | 0.0 | 8.0 | 0.00 | 0.00 | 0.00 | 99 | 1016.1 |
| 20260906093348 | 20 | 16 | 3.2 | 6.4 | 0.00 | 0.00 | 0.00 | 99 | 1016.1 |
| 20260906092843 | 20 | 0 | 3.2 | 4.8 | 0.00 | 0.00 | 0.00 | 99 | 1016.2 |
| 20260906092337 | 20 | 358 | 6.4 | 6.4 | 0.00 | 0.00 | 0.00 | 99 | 1016.2 |
| 20260906091833 | 20 | 17 | 3.2 | 6.4 | 0.00 | 0.00 | 0.00 | 99 | 1016.0 |
| 20260906091329 | 20 | 315 | 0.0 | 6.4 | 0.00 | 0.00 | 0.00 | 99 | 1016.1 |
| 20260906090826 | 20 | 351 | 0.0 | 6.4 | 0.00 | 0.00 | 0.00 | 99 | 1015.9 |
| 20260906090325 | 20 | 356 | 3.2 | 3.2 | 0.00 | 0.00 | 0.00 | 99 | 1016.1 |
| 20260906085824 | 20 | 304 | 0.0 | 6.4 | 0.00 | 0.00 | 0.00 | 99 | 1016.0 |
| 20260906085318 | 20 | 85 | 0.0 | 4.8 | 0.00 | 0.00 | 0.00 | 98 | 1016.1 |
| 20260906084813 | 20 | 126 | 0.0 | 3.2 | 0.00 | 0.00 | 0.00 | 98 | 1015.9 |
| 20260906084312 | 20 | 10 | 1.6 | 3.2 | 0.00 | 0.00 | 0.00 | 98 | 1016.0 |
| 20260906083807 | 20 | 8 | 3.2 | 3.2 | 0.00 | 0.00 | 0.00 | 98 | 1016.0 |
| 20260906083303 | 20 | 5 | 3.2 | 4.8 | 0.00 | 0.00 | 0.00 | 97 | 1015.8 |
| 20260906082757 | 20 | 5 | 0.0 | 3.2 | 0.00 | 0.00 | 0.00 | 97 | 1016.2 |
| 20260906082252 | 20 | 49 | 3.2 | 4.8 | 0.00 | 0.00 | 0.00 | 97 | 1016.1 |
| 20260906081748 | 20 | 20 | 3.2 | 4.8 | 0.00 | 0.00 | 0.00 | 97 | 1016.0 |
| 20260906081243 | 20 | 78 | 3.2 | 6.4 | 0.00 | 0.00 | 0.00 | 97 | 1016.2 |
| 20260906080734 | 20 | 6 | 3.2 | 6.4 | 0.00 | 0.00 | 0.00 | 97 | 1016.2 |
| 20260906080230 | 20 | 5 | 3.2 | 6.4 | 0.00 | 0.00 | 0.00 | 96 | 1016.1 |
| 20260906075729 | 20 | 24 | 3.2 | 6.4 | 0.00 | 0.00 | 0.00 | 96 | 1016.1 |
| 20260906075224 | 20 | 349 | 1.6 | 6.4 | 0.00 | 0.00 | 0.00 | 96 | 1016.1 |
| 20260906074719 | 21 | 15 | 3.2 | 6.4 | 0.00 | 0.00 | 0.00 | 96 | 1016.1 |
| 20260906074219 | 21 | 73 | 3.2 | 6.4 | 0.00 | 0.00 | 0.00 | 96 | 1016.2 |
| 20260906073713 | 21 | 21 | 0.0 | 6.4 | 0.00 | 0.00 | 0.00 | 96 | 1016.1 |
| 20260906073208 | 21 | 336 | 8.0 | 8.0 | 0.00 | 0.00 | 0.00 | 96 | 1016.1 |
| 20260906072704 | 21 | 356 | 6.4 | 6.4 | 0.00 | 0.00 | 0.00 | 95 | 1016.0 |
| 20260906072159 | 21 | 9 | 4.8 | 4.8 | 0.00 | 0.00 | 0.00 | 95 | 1016.3 |
| 20260906071656 | 21 | 4 | 3.2 | 6.4 | 0.00 | 0.00 | 0.00 | 95 | 1016.2 |
| 20260906071154 | 21 | 336 | 0.0 | 6.4 | 0.00 | 0.00 | 0.00 | 95 | 1016.3 |
| 20260906070652 | 21 | 8 | 3.2 | 6.4 | 0.00 | 0.00 | 0.00 | 95 | 1016.6 |
| 20260906070147 | 21 | 11 | 3.2 | 8.0 | 0.00 | 0.00 | 0.00 | 95 | 1016.2 |
| 20260906065647 | 21 | 55 | 0.0 | 6.4 | 0.00 | 0.00 | 0.00 | 94 | 1016.3 |
| 20260906065142 | 21 | 19 | 3.2 | 6.4 | 0.00 | 0.00 | 0.00 | 94 | 1016.3 |
| 20260906064637 | 21 | 56 | 4.8 | 9.7 | 0.00 | 0.00 | 0.00 | 94 | 1016.3 |
| 20260906064132 | 21 | 37 | 0.0 | 6.4 | 0.00 | 0.00 | 0.00 | 94 | 1016.5 |
| 20260906063627 | 21 | 7 | 3.2 | 6.4 | 0.00 | 0.00 | 0.00 | 94 | 1016.6 |
| 20260906063118 | 21 | 64 | 1.6 | 4.8 | 0.00 | 0.00 | 0.00 | 93 | 1016.3 |
| 20260906062614 | 21 | 44 | 3.2 | 6.4 | 0.00 | 0.00 | 0.00 | 93 | 1016.3 |
| 20260906062112 | 21 | 269 | 1.6 | 6.4 | 0.00 | 0.00 | 0.00 | 93 | 1016.3 |
| 20260906061609 | 21 | 55 | 3.2 | 6.4 | 0.00 | 0.00 | 0.00 | 93 | 1016.5 |
| 20260906061108 | 21 | 12 | 3.2 | 6.4 | 0.00 | 0.00 | 0.00 | 93 | 1016.6 |
| 20260906060605 | 21 | 29 | 3.2 | 6.4 | 0.00 | 0.00 | 0.00 | 93 | 1016.6 |
| 20260906055557 | 21 | 347 | 3.2 | 6.4 | 0.00 | 0.00 | 0.00 | 93 | 1016.3 |
| 20260906055052 | 21 | 15 | 1.6 | 6.4 | 0.00 | 0.00 | 0.00 | 93 | 1016.2 |
| 20260906054547 | 21 | 52 | 3.2 | 4.8 | 0.00 | 0.00 | 0.00 | 92 | 1016.1 |
| 20260906054042 | 22 | 16 | 0.0 | 8.0 | 0.00 | 0.00 | 0.00 | 92 | 1015.9 |
| 20260906053538 | 22 | 29 | 3.2 | 8.0 | 0.00 | 0.00 | 0.00 | 92 | 1016.0 |
| 20260906053034 | 22 | 18 | 3.2 | 6.4 | 0.00 | 0.00 | 0.00 | 92 | 1016.1 |
| 20260906052529 | 22 | 8 | 3.2 | 4.8 | 0.00 | 0.00 | 0.00 | 92 | 1016.2 |
| 20260906052026 | 22 | 34 | 6.4 | 8.0 | 0.00 | 0.00 | 0.00 | 92 | 1016.1 |
| 20260906051521 | 22 | 358 | 4.8 | 8.0 | 0.00 | 0.00 | 0.00 | 92 | 1016.1 |
| 20260906051017 | 22 | 49 | 3.2 | 9.7 | 0.00 | 0.00 | 0.00 | 92 | 1016.0 |
| 20260906050512 | 22 | 357 | 6.4 | 6.4 | 0.00 | 0.00 | 0.00 | 92 | 1016.0 |
| 20260906050006 | 22 | 105 | 3.2 | 6.4 | 0.00 | 0.00 | 0.00 | 92 | 1015.9 |
| 20260906045505 | 22 | 10 | 0.0 | 8.0 | 0.00 | 0.00 | 0.00 | 91 | 1016.0 |
| 20260906045001 | 22 | 28 | 3.2 | 6.4 | 0.00 | 0.00 | 0.00 | 91 | 1015.8 |
| 20260906044455 | 22 | 87 | 1.6 | 8.0 | 0.00 | 0.00 | 0.00 | 91 | 1015.9 |
| 20260906043951 | 22 | 3 | 4.8 | 8.0 | 0.00 | 0.00 | 0.00 | 90 | 1015.7 |
| 20260906043447 | 22 | 5 | 4.8 | 9.7 | 0.00 | 0.00 | 0.00 | 90 | 1015.8 |
| 20260906042943 | 22 | 73 | 3.2 | 6.4 | 0.00 | 0.00 | 0.00 | 89 | 1015.6 |
| 20260906042442 | 22 | 25 | 6.4 | 6.4 | 0.00 | 0.00 | 0.00 | 89 | 1015.4 |
| 20260906041936 | 22 | 10 | 3.2 | 4.8 | 0.00 | 0.00 | 0.00 | 89 | 1015.4 |
| 20260906041432 | 22 | 29 | 3.2 | 6.4 | 0.00 | 0.00 | 0.00 | 88 | 1015.4 |
| 20260906040926 | 22 | 354 | 4.8 | 11.3 | 0.00 | 0.00 | 0.00 | 88 | 1015.5 |
| 20260906040422 | 22 | 12 | 3.2 | 11.3 | 0.00 | 0.00 | 0.00 | 88 | 1015.5 |
| 20260906035917 | 22 | 47 | 4.8 | 9.7 | 0.00 | 0.00 | 0.00 | 88 | 1015.2 |
| 20260906035412 | 22 | 341 | 6.4 | 9.7 | 0.00 | 0.00 | 0.00 | 88 | 1015.3 |
| 20260906034908 | 22 | 56 | 8.0 | 9.7 | 0.00 | 0.00 | 0.00 | 88 | 1014.9 |
| 20260906034402 | 22 | 349 | 6.4 | 9.7 | 0.00 | 0.00 | 0.00 | 88 | 1015.1 |
| 20260906033858 | 22 | 49 | 8.0 | 8.0 | 0.00 | 0.00 | 0.00 | 88 | 1015.3 |
| 20260906033357 | 22 | 76 | 6.4 | 9.7 | 0.00 | 0.00 | 0.00 | 88 | 1015.1 |
| 20260906032853 | 22 | 73 | 1.6 | 8.0 | 0.00 | 0.00 | 0.00 | 88 | 1015.1 |
| 20260906032349 | 22 | 115 | 3.2 | 9.7 | 0.00 | 0.00 | 0.00 | 88 | 1015.2 |
| 20260906031844 | 22 | 131 | 4.8 | 11.3 | 0.00 | 0.00 | 0.00 | 88 | 1015.1 |
| 20260906031339 | 22 | 63 | 11.3 | 11.3 | 0.00 | 0.00 | 0.00 | 88 | 1015.1 |
| 20260906030839 | 22 | 12 | 4.8 | 11.3 | 0.00 | 0.00 | 0.00 | 88 | 1015.0 |
| 20260906030335 | 22 | 86 | 3.2 | 11.3 | 0.00 | 0.00 | 0.00 | 88 | 1015.0 |
| 20260906025829 | 22 | 45 | 3.2 | 11.3 | 0.00 | 0.00 | 0.00 | 88 | 1015.1 |
| 20260906025323 | 22 | 79 | 3.2 | 16.1 | 0.00 | 0.00 | 0.00 | 88 | 1015.0 |
| 20260906024822 | 22 | 16 | 6.4 | 19.3 | 0.00 | 0.00 | 0.00 | 88 | 1015.1 |
| 20260906024321 | 22 | 16 | 6.4 | 11.3 | 0.00 | 0.00 | 0.00 | 88 | 1015.1 |
| 20260906023817 | 22 | 82 | 4.8 | 6.4 | 0.00 | 0.00 | 0.00 | 88 | 1014.9 |
| 20260906023312 | 22 | 325 | 4.8 | 4.8 | 0.00 | 0.00 | 0.00 | 89 | 1014.9 |
| 20260906022808 | 22 | 101 | 0.0 | 4.8 | 0.00 | 0.00 | 0.00 | 89 | 1014.9 |
| 20260906022306 | 22 | 58 | 4.8 | 9.7 | 0.00 | 0.00 | 0.00 | 89 | 1015.3 |
| 20260906021759 | 22 | 302 | 3.2 | 11.3 | 0.00 | 0.00 | 0.00 | 89 | 1015.0 |
| 20260906021258 | 22 | 25 | 6.4 | 11.3 | 0.00 | 0.00 | 0.00 | 89 | 1015.1 |
| 20260906020752 | 22 | 45 | 4.8 | 12.9 | 0.00 | 0.00 | 0.00 | 89 | 1015.2 |
| 20260906020246 | 22 | 44 | 9.7 | 17.7 | 0.00 | 0.00 | 0.00 | 88 | 1015.1 |
| 20260906015741 | 22 | 20 | 4.8 | 8.0 | 0.00 | 0.00 | 0.00 | 88 | 1014.9 |
| 20260906015239 | 22 | 53 | 9.7 | 12.9 | 0.00 | 0.00 | 0.00 | 87 | 1014.9 |
| 20260906014734 | 22 | 94 | 3.2 | 14.5 | 0.00 | 0.00 | 0.00 | 87 | 1015.1 |
| 20260906014230 | 22 | 17 | 4.8 | 12.9 | 0.00 | 0.00 | 0.00 | 87 | 1015.0 |
| 20260906013726 | 22 | 19 | 8.0 | 14.5 | 0.00 | 0.00 | 0.00 | 87 | 1015.1 |
| 20260906013226 | 22 | 46 | 4.8 | 11.3 | 0.00 | 0.00 | 0.00 | 87 | 1015.2 |
| 20260906012721 | 22 | 44 | 4.8 | 16.1 | 0.00 | 0.00 | 0.00 | 88 | 1014.8 |
| 20260906012216 | 22 | 30 | 11.3 | 11.3 | 0.00 | 0.00 | 0.00 | 88 | 1014.9 |
| 20260906011711 | 22 | 54 | 4.8 | 9.7 | 0.00 | 0.00 | 0.00 | 89 | 1014.9 |
| 20260906011206 | 22 | 0 | 4.8 | 8.0 | 0.00 | 0.00 | 0.00 | 89 | 1014.9 |
| 20260906010701 | 22 | 36 | 11.3 | 11.3 | 0.00 | 0.00 | 0.00 | 90 | 1015.1 |
| 20260906010158 | 22 | 52 | 6.4 | 16.1 | 0.00 | 0.00 | 0.00 | 89 | 1014.9 |
| 20260906005657 | 22 | 343 | 0.0 | 9.7 | 0.00 | 0.00 | 0.00 | 89 | 1015.1 |
| 20260906005156 | 23 | 1 | 3.2 | 4.8 | 0.00 | 0.00 | 0.00 | 89 | 1015.0 |
| 20260906004655 | 23 | 314 | 3.2 | 16.1 | 0.00 | 0.00 | 0.00 | 89 | 1014.8 |
| 20260906004150 | 23 | 62 | 3.2 | 12.9 | 0.00 | 0.00 | 0.00 | 89 | 1014.8 |
| 20260906003646 | 23 | 66 | 9.7 | 17.7 | 0.00 | 0.00 | 0.00 | 88 | 1014.9 |
| 20260906003142 | 23 | 70 | 4.8 | 9.7 | 0.00 | 0.00 | 0.00 | 87 | 1014.7 |
| 20260906002636 | 23 | 12 | 4.8 | 11.3 | 0.00 | 0.00 | 0.00 | 87 | 1014.7 |
| 20260906002131 | 24 | 54 | 6.4 | 6.4 | 0.00 | 0.00 | 0.00 | 87 | 1014.5 |
| 20260906001626 | 24 | 348 | 8.0 | 8.0 | 0.00 | 0.00 | 0.00 | 86 | 1014.4 |
| 20260906001126 | 24 | 66 | 6.4 | 11.3 | 0.00 | 0.00 | 0.00 | 86 | 1014.4 |
| 20260906000622 | 24 | 42 | 8.0 | 12.9 | 0.00 | 0.00 | 0.00 | 86 | 1014.5 |
| 20260906000117 | 25 | 20 | 8.0 | 17.7 | 0.00 | 0.00 | 0.00 | 85 | 1014.2 |
| 20260905235616 | 25 | 32 | 4.8 | 16.1 | 0.00 | 0.00 | 0.00 | 85 | 1014.2 |
| 20260905235111 | 25 | 53 | 4.8 | 8.0 | 0.00 | 0.00 | 0.00 | 84 | 1013.9 |
| 20260905234607 | 25 | 2 | 6.4 | 9.7 | 0.00 | 0.00 | 0.00 | 84 | 1013.7 |
| 20260905234102 | 25 | 21 | 6.4 | 9.7 | 0.00 | 0.00 | 0.00 | 84 | 1013.8 |
| 20260905233601 | 26 | 359 | 4.8 | 11.3 | 0.00 | 0.00 | 0.00 | 83 | 1013.9 |
| 20260905233056 | 26 | 14 | 6.4 | 9.7 | 0.00 | 0.00 | 0.00 | 83 | 1013.9 |
| 20260905232551 | 26 | 4 | 3.2 | 6.4 | 0.00 | 0.00 | 0.00 | 82 | 1013.9 |
| 20260905232047 | 26 | 21 | 1.6 | 6.4 | 0.00 | 0.00 | 0.00 | 82 | 1014.0 |
| 20260905231542 | 26 | 344 | 3.2 | 8.0 | 0.00 | 0.00 | 0.00 | 80 | 1014.0 |
| 20260905231038 | 27 | 13 | 0.0 | 9.7 | 0.00 | 0.00 | 0.00 | 78 | 1013.6 |
| 20260905230537 | 27 | 24 | 3.2 | 11.3 | 0.00 | 0.00 | 0.00 | 75 | 1013.7 |
| 20260905230036 | 27 | 20 | 6.4 | 8.0 | 0.00 | 0.00 | 0.00 | 74 | 1013.8 |
| 20260905225526 | 27 | 52 | 4.8 | 11.3 | 0.00 | 0.00 | 0.00 | 73 | 1013.7 |
| 20260905225021 | 28 | 15 | 8.0 | 11.3 | 0.00 | 0.00 | 0.00 | 73 | 1013.6 |
| 20260905224520 | 28 | 335 | 6.4 | 9.7 | 0.00 | 0.00 | 0.00 | 74 | 1013.5 |
| 20260905224020 | 27 | 278 | 3.2 | 6.4 | 0.00 | 0.00 | 0.00 | 75 | 1013.5 |
| 20260905223519 | 27 | 41 | 0.0 | 8.0 | 0.00 | 0.00 | 0.00 | 75 | 1013.3 |
| 20260905223014 | 28 | 4 | 6.4 | 9.7 | 0.00 | 0.00 | 0.00 | 73 | 1013.3 |
| 20260905222513 | 28 | 60 | 4.8 | 6.4 | 0.00 | 0.00 | 0.00 | 73 | 1013.4 |
| 20260905222008 | 27 | 303 | 3.2 | 11.3 | 0.00 | 0.00 | 0.00 | 74 | 1013.5 |
| 20260905221505 | 27 | 299 | 3.2 | 19.3 | 0.00 | 0.00 | 0.00 | 74 | 1013.3 |
| 20260905221001 | 27 | 353 | 4.8 | 16.1 | 0.00 | 0.00 | 0.00 | 73 | 1013.3 |
| 20260905220457 | 28 | 1 | 6.4 | 11.3 | 0.00 | 0.00 | 0.00 | 73 | 1013.3 |
| 20260905215955 | 28 | 7 | 17.7 | 17.7 | 0.00 | 0.00 | 0.00 | 74 | 1013.3 |
| 20260905215451 | 28 | 325 | 6.4 | 11.3 | 0.00 | 0.00 | 0.00 | 75 | 1013.0 |
| 20260905214948 | 28 | 339 | 6.4 | 12.9 | 0.00 | 0.00 | 0.00 | 74 | 1013.3 |
| 20260905214443 | 28 | 47 | 8.0 | 11.3 | 0.00 | 0.00 | 0.00 | 74 | 1013.4 |
| 20260905213937 | 28 | 74 | 6.4 | 12.9 | 0.00 | 0.00 | 0.00 | 75 | 1013.4 |
| 20260905213433 | 27 | 297 | 3.2 | 11.3 | 0.00 | 0.00 | 0.00 | 75 | 1013.6 |
| 20260905212928 | 28 | 307 | 4.8 | 14.5 | 0.00 | 0.00 | 0.00 | 76 | 1013.3 |
| 20260905212423 | 28 | 305 | 8.0 | 11.3 | 0.00 | 0.00 | 0.00 | 75 | 1013.5 |
| 20260905211922 | 28 | 331 | 11.3 | 25.7 | 0.00 | 0.00 | 0.00 | 75 | 1013.5 |
| 20260905211418 | 28 | 354 | 8.0 | 9.7 | 0.00 | 0.00 | 0.00 | 76 | 1013.6 |
| 20260905210915 | 28 | 33 | 6.4 | 16.1 | 0.00 | 0.00 | 0.00 | 76 | 1013.4 |
| 20260905210415 | 28 | 343 | 11.3 | 11.3 | 0.00 | 0.00 | 0.00 | 75 | 1013.4 |
| 20260905205914 | 27 | 0 | 11.3 | 14.5 | 0.00 | 0.00 | 0.00 | 77 | 1013.5 |
| 20260905205409 | 27 | 6 | 4.8 | 9.7 | 0.00 | 0.00 | 0.00 | 78 | 1013.7 |
| 20260905204907 | 27 | 355 | 8.0 | 19.3 | 0.00 | 0.00 | 0.00 | 78 | 1013.8 |
| 20260905204404 | 27 | 41 | 3.2 | 16.1 | 0.00 | 0.00 | 0.00 | 79 | 1013.7 |
| 20260905203903 | 28 | 8 | 4.8 | 12.9 | 0.00 | 0.00 | 0.00 | 78 | 1013.8 |
| 20260905203358 | 27 | 358 | 8.0 | 9.7 | 0.00 | 0.00 | 0.00 | 79 | 1014.0 |
| 20260905202854 | 27 | 1 | 9.7 | 16.1 | 0.00 | 0.00 | 0.00 | 78 | 1013.8 |
| 20260905202349 | 28 | 358 | 8.0 | 11.3 | 0.00 | 0.00 | 0.00 | 77 | 1013.8 |
| 20260905201844 | 28 | 328 | 3.2 | 11.3 | 0.00 | 0.00 | 0.00 | 78 | 1014.2 |
| 20260905201340 | 27 | 338 | 11.3 | 16.1 | 0.00 | 0.00 | 0.00 | 78 | 1014.0 |
| 20260905200834 | 27 | 33 | 6.4 | 16.1 | 0.00 | 0.00 | 0.00 | 80 | 1013.6 |
| 20260905200330 | 28 | 9 | 4.8 | 11.3 | 0.00 | 0.00 | 0.00 | 77 | 1013.8 |
| 20260905195827 | 27 | 349 | 6.4 | 11.3 | 0.00 | 0.00 | 0.00 | 79 | 1013.6 |
| 20260905195322 | 28 | 28 | 8.0 | 12.9 | 0.00 | 0.00 | 0.00 | 77 | 1013.7 |
| 20260905194819 | 28 | 17 | 14.5 | 16.1 | 0.00 | 0.00 | 0.00 | 77 | 1013.6 |
| 20260905194313 | 28 | 339 | 3.2 | 11.3 | 0.00 | 0.00 | 0.00 | 78 | 1013.7 |
| 20260905193812 | 28 | 348 | 1.6 | 9.7 | 0.00 | 0.00 | 0.00 | 79 | 1013.9 |
| 20260905193307 | 28 | 0 | 3.2 | 8.0 | 0.00 | 0.00 | 0.00 | 78 | 1013.7 |
| 20260905192803 | 28 | 32 | 6.4 | 14.5 | 0.00 | 0.00 | 0.00 | 77 | 1013.7 |
| 20260905192259 | 30 | 3 | 6.4 | 8.0 | 0.00 | 0.00 | 0.00 | 75 | 1013.7 |
| 20260905191758 | 30 | 325 | 6.4 | 16.1 | 0.00 | 0.00 | 0.00 | 75 | 1013.8 |
| 20260905191256 | 29 | 1 | 4.8 | 9.7 | 0.00 | 0.00 | 0.00 | 76 | 1013.7 |
| 20260905190755 | 29 | 31 | 3.2 | 6.4 | 0.00 | 0.00 | 0.00 | 78 | 1013.7 |
| 20260905190254 | 29 | 358 | 3.2 | 14.5 | 0.00 | 0.00 | 0.00 | 76 | 1013.5 |
| 20260905185753 | 29 | 1 | 9.7 | 12.9 | 0.00 | 0.00 | 0.00 | 76 | 1013.8 |
| 20260905185248 | 29 | 338 | 0.0 | 17.7 | 0.00 | 0.00 | 0.00 | 76 | 1013.7 |
| 20260905184742 | 29 | 64 | 4.8 | 11.3 | 0.00 | 0.00 | 0.00 | 77 | 1013.6 |
| 20260905184241 | 29 | 72 | 3.2 | 12.9 | 0.00 | 0.00 | 0.00 | 79 | 1013.7 |
| 20260905183740 | 29 | 57 | 8.0 | 14.5 | 0.00 | 0.00 | 0.00 | 76 | 1013.9 |
| 20260905183236 | 28 | 10 | 4.8 | 14.5 | 0.00 | 0.00 | 0.00 | 78 | 1014.0 |
| 20260905182730 | 28 | 4 | 9.7 | 11.3 | 0.00 | 0.00 | 0.00 | 78 | 1013.6 |
| 20260905182224 | 29 | 12 | 9.7 | 9.7 | 0.00 | 0.00 | 0.00 | 77 | 1013.8 |
| 20260905181714 | 29 | 354 | 8.0 | 12.9 | 0.00 | 0.00 | 0.00 | 78 | 1013.8 |
| 20260905181213 | 30 | 267 | 1.6 | 9.7 | 0.00 | 0.00 | 0.00 | 76 | 1013.7 |
| 20260905180708 | 30 | 312 | 6.4 | 11.3 | 0.00 | 0.00 | 0.00 | 75 | 1013.6 |
| 20260905180203 | 29 | 345 | 4.8 | 6.4 | 0.00 | 0.00 | 0.00 | 75 | 1013.6 |
| 20260905175703 | 29 | 346 | 6.4 | 19.3 | 0.00 | 0.00 | 0.00 | 76 | 1013.6 |
| 20260905175157 | 30 | 354 | 3.2 | 11.3 | 0.00 | 0.00 | 0.00 | 75 | 1013.8 |
| 20260905174653 | 29 | 358 | 3.2 | 8.0 | 0.00 | 0.00 | 0.00 | 77 | 1013.7 |
| 20260905174149 | 30 | 349 | 8.0 | 12.9 | 0.00 | 0.00 | 0.00 | 76 | 1013.8 |
| 20260905173644 | 30 | 348 | 4.8 | 9.7 | 0.00 | 0.00 | 0.00 | 75 | 1013.8 |
| 20260905173140 | 29 | 22 | 0.0 | 8.0 | 0.00 | 0.00 | 0.00 | 79 | 1013.8 |
| 20260905172639 | 29 | 297 | 4.8 | 6.4 | 0.00 | 0.00 | 0.00 | 78 | 1013.5 |
| 20260905172133 | 28 | 64 | 4.8 | 11.3 | 0.00 | 0.00 | 0.00 | 79 | 1013.6 |
| 20260905171630 | 29 | 28 | 6.4 | 11.3 | 0.00 | 0.00 | 0.00 | 77 | 1013.7 |
| 20260905171126 | 29 | 7 | 4.8 | 8.0 | 0.00 | 0.00 | 0.00 | 76 | 1013.7 |
| 20260905170622 | 30 | 319 | 4.8 | 11.3 | 0.00 | 0.00 | 0.00 | 77 | 1014.0 |
| 20260905170117 | 30 | 53 | 6.4 | 9.7 | 0.00 | 0.00 | 0.00 | 77 | 1013.8 |
| 20260905165611 | 29 | 338 | 4.8 | 9.7 | 0.00 | 0.00 | 0.00 | 77 | 1014.0 |
| 20260905165106 | 30 | 341 | 4.8 | 8.0 | 0.00 | 0.00 | 0.00 | 77 | 1014.1 |
| 20260905164601 | 29 | 309 | 3.2 | 8.0 | 0.00 | 0.00 | 0.00 | 78 | 1014.0 |
| 20260905164055 | 29 | 327 | 0.0 | 9.7 | 0.00 | 0.00 | 0.00 | 78 | 1013.8 |
| 20260905163552 | 29 | 354 | 6.4 | 11.3 | 0.00 | 0.00 | 0.00 | 78 | 1014.3 |
| 20260905163047 | 28 | 45 | 3.2 | 12.9 | 0.00 | 0.00 | 0.00 | 79 | 1013.8 |
| 20260905162544 | 29 | 24 | 4.8 | 11.3 | 0.00 | 0.00 | 0.00 | 78 | 1013.8 |
| 20260905162037 | 29 | 63 | 4.8 | 8.0 | 0.00 | 0.00 | 0.00 | 79 | 1013.9 |
| 20260905161532 | 28 | 35 | 4.8 | 9.7 | 0.00 | 0.00 | 0.00 | 79 | 1013.9 |
| 20260905161030 | 28 | 351 | 9.7 | 11.3 | 0.00 | 0.00 | 0.00 | 79 | 1013.9 |
| 20260905160529 | 29 | 355 | 6.4 | 9.7 | 0.00 | 0.00 | 0.00 | 79 | 1014.0 |
| 20260905160028 | 28 | 318 | 3.2 | 6.4 | 0.00 | 0.00 | 0.00 | 81 | 1014.1 |
| 20260905155528 | 28 | 9 | 4.8 | 11.3 | 0.00 | 0.00 | 0.00 | 81 | 1014.0 |
| 20260905155026 | 28 | 342 | 6.4 | 8.0 | 0.00 | 0.00 | 0.00 | 82 | 1014.0 |
| 20260905154522 | 27 | 23 | 3.2 | 16.1 | 0.00 | 0.00 | 0.00 | 82 | 1014.0 |
| 20260905154018 | 28 | 110 | 1.6 | 11.3 | 0.00 | 0.00 | 0.00 | 82 | 1013.8 |
| 20260905153514 | 27 | 29 | 0.0 | 9.7 | 0.00 | 0.00 | 0.00 | 82 | 1013.8 |
| 20260905153013 | 27 | 10 | 1.6 | 8.0 | 0.00 | 0.00 | 0.00 | 83 | 1013.9 |
| 20260905152508 | 27 | 18 | 8.0 | 11.3 | 0.00 | 0.00 | 0.00 | 84 | 1013.9 |
| 20260905152003 | 27 | 24 | 6.4 | 9.7 | 0.00 | 0.00 | 0.00 | 85 | 1013.6 |
| 20260905151458 | 27 | 355 | 4.8 | 9.7 | 0.00 | 0.00 | 0.00 | 86 | 1013.8 |
| 20260905150953 | 27 | 321 | 8.0 | 11.3 | 0.00 | 0.00 | 0.00 | 85 | 1013.7 |
| 20260905150448 | 26 | 24 | 9.7 | 9.7 | 0.00 | 0.00 | 0.00 | 87 | 1013.6 |
| 20260905145944 | 26 | 108 | 3.2 | 8.0 | 0.00 | 0.00 | 0.00 | 87 | 1013.6 |
| 20260905145439 | 26 | 354 | 3.2 | 11.3 | 0.00 | 0.00 | 0.00 | 89 | 1013.6 |
| 20260905144939 | 26 | 59 | 3.2 | 6.4 | 0.00 | 0.00 | 0.00 | 89 | 1013.5 |
| 20260905144434 | 25 | 172 | 3.2 | 9.7 | 0.00 | 0.00 | 0.00 | 91 | 1013.5 |
| 20260905143933 | 25 | 26 | 6.4 | 11.3 | 0.00 | 0.00 | 0.00 | 91 | 1013.3 |
| 20260905143432 | 25 | 60 | 8.0 | 9.7 | 0.00 | 0.00 | 0.00 | 92 | 1013.4 |
| 20260905142927 | 25 | 87 | 6.4 | 8.0 | 0.00 | 0.00 | 0.00 | 93 | 1013.6 |
| 20260905142426 | 25 | 64 | 3.2 | 9.7 | 0.00 | 0.00 | 0.00 | 93 | 1013.3 |
| 20260905141922 | 25 | 11 | 3.2 | 11.3 | 0.00 | 0.00 | 0.00 | 95 | 1013.3 |
| 20260905141416 | 25 | 353 | 4.8 | 9.7 | 0.00 | 0.00 | 0.00 | 94 | 1013.4 |
| 20260905140913 | 25 | 91 | 3.2 | 9.7 | 0.00 | 0.00 | 0.00 | 94 | 1013.2 |
| 20260905140408 | 25 | 57 | 6.4 | 9.7 | 0.00 | 0.00 | 0.00 | 93 | 1013.4 |
| 20260905135906 | 25 | 87 | 3.2 | 9.7 | 0.00 | 0.00 | 0.00 | 92 | 1012.9 |
| 20260905135401 | 26 | 22 | 6.4 | 11.3 | 0.00 | 0.00 | 0.00 | 92 | 1013.0 |
| 20260905134857 | 26 | 19 | 6.4 | 12.9 | 0.00 | 0.00 | 0.00 | 92 | 1013.0 |
| 20260905134350 | 26 | 41 | 3.2 | 4.8 | 0.00 | 0.00 | 0.00 | 92 | 1012.7 |
| 20260905133844 | 26 | 31 | 3.2 | 6.4 | 0.00 | 0.00 | 0.00 | 92 | 1012.9 |
| 20260905133340 | 25 | 353 | 4.8 | 8.0 | 0.00 | 0.00 | 0.00 | 93 | 1013.0 |
| 20260905132839 | 25 | 72 | 6.4 | 9.7 | 0.00 | 0.00 | 0.00 | 94 | 1013.1 |
| 20260905132334 | 25 | 58 | 3.2 | 6.4 | 0.00 | 0.00 | 0.00 | 94 | 1013.1 |
| 20260905131829 | 25 | 351 | 3.2 | 6.4 | 0.00 | 0.00 | 0.00 | 94 | 1013.3 |
| 20260905131325 | 25 | 344 | 6.4 | 11.3 | 0.00 | 0.00 | 0.00 | 94 | 1013.3 |
| 20260905130820 | 25 | 5 | 3.2 | 8.0 | 0.00 | 0.00 | 0.00 | 94 | 1013.2 |